Home > Weather > Pullman > Past weeks

Flag for USA Past Weather in Pullman, Washington, USA — Yesterday and Last 2 Weeks

Now
91 °F

Sunny.


Feels Like: 87 °F
Forecast: 58 / 90 °F
Wind: 10 mph from Northeast

Location: Pullman / Moscow Regional Airport

Current Time: Jun 29, 2016 at 4:39:10 PM

Latest Report: Jun 29, 2016 at 3:53 PM


Visibility: 10 mi

Pressure: 29.98 "Hg (27.68 "Hg at 715m altitude)

Humidity: 18%

Dew Point: 42 °F

Location of PullmanLocation

Past Weather in Pullman — Graph

°F

Pullman Temperature Yesterday

Maximum temperature yesterday: 88 °F (at 2:53 PM)
Minimum temperature yesterday: 51 °F (at 4:53 AM)
Average temperature yesterday: 71 °F

High & Low Weather Summary for the Past Weeks

 TemperatureHumidityPressure
High90 °F (Jun 29, 2:53 PM)90% (Jun 18, 11:53 AM)30.43 "Hg (Jun 18, 11:53 AM)
Low37 °F (Jun 15, 12:53 AM)19% (Jun 29, 2:53 PM)29.83 "Hg (Jun 15, 6:53 PM)
Average60 °F58%30.10 "Hg
* Reported Jun 14 2:53 PM — Jun 29 2:53 PM, Pullman, Weather by CustomWeather, © 2016

Note: Actual official high and low records may vary slightly from our data, if they occured in-between our weather recording intervals... More about our weather records

Advertising

Pullman Weather History for the Previous 24 Hours

Scroll right to see more
 ConditionsComfort  
Time TempWeatherWind HumidityBarometerVisibility
2:53 PM
Wed, Jun 29
90 °FSunny.8 mph19%30.00 "Hg10 mi
1:53 PM88 °FSunny.6 mph29%30.02 "Hg10 mi
12:53 PM85 °FSunny.5 mph35%30.03 "Hg10 mi
11:53 AM82 °FSunny.No wind38%30.06 "Hg10 mi
10:53 AM79 °FSunny.6 mph42%30.07 "Hg10 mi
9:53 AM76 °FSunny.6 mph45%30.08 "Hg10 mi
8:53 AM74 °FSunny.3 mph45%30.07 "Hg10 mi
7:53 AM72 °FSunny.3 mph48%30.05 "Hg10 mi
6:53 AM62 °FSunny.No wind67%30.05 "Hg10 mi
5:53 AM52 °FClear.No wind83%30.05 "Hg10 mi
4:53 AM51 °FClear.No wind83%30.04 "Hg10 mi
3:53 AM52 °FClear.No wind80%30.03 "Hg10 mi
2:53 AM52 °FClear.No wind80%30.03 "Hg10 mi
1:53 AM54 °FClear.No wind80%30.03 "Hg10 mi
12:53 AM56 °FClear.No wind77%30.02 "Hg10 mi
11:53 PM
Tue, Jun 28
57 °FClear.No wind78%30.03 "Hg10 mi
10:53 PM61 °FClear.No wind72%30.02 "Hg10 mi
9:53 PM63 °FClear.No wind70%30.02 "Hg10 mi
8:53 PM69 °FSunny.No wind63%30.01 "Hg10 mi
7:53 PM79 °FSunny.3 mph41%30.00 "Hg10 mi
6:53 PM84 °FSunny.6 mph36%30.01 "Hg10 mi
5:53 PM88 °FSunny.5 mph30%30.02 "Hg10 mi
4:53 PM88 °FHot.8 mph26%30.04 "Hg10 mi
Weather by CustomWeather, © 2016

See weather overviewHow to use our weather pages